Flag for Germany Weather past 2 weeks in Kassel, Hesse, Germany

Now
70 °F

Sunny.


Feels Like: 70 °F
Forecast: 53 / 79 °F
Wind: 12 mph from Southeast

Location: Kassel / Calden

Current Time: Aug 4, 2015 at 7:40:48 AM

Latest Report: Aug 4, 2015 at 7:20 AM


Visibility: 10 mi

Pressure: 29.92 "Hg

Humidity: 60%

Dew point: 55 °F

Location of KasselLocation

Historic Weather in Kassel — Graph

°F

Kassel temperature yesterday

Maximum temperature yesterday: 88 °F (at 3:50 PM)
Minimum temperature yesterday: 52 °F (at 5:50 AM)
Average temperature yesterday: 77 °F

Past Weeks' High & Low Weather Summary

 TemperatureHumidityPressure
High88 °F (Aug 3, 3:50 PM)100% (Jul 20, 6:20 AM)30.15 "Hg (Jul 20, 6:20 AM)
Low45 °F (Jul 31, 6:20 AM)29% (Aug 3, 4:20 PM)29.56 "Hg (Jul 25, 10:20 AM)
Average66 °F63%29.91 "Hg
* Reported Jul 20 6:20 AM — Aug 4 6:20 AM, Kassel, Weather by CustomWeather, © 2015

Note: Actual official high and low records may vary slightly from our data, if they occured in-between our weather recording intervals... More about our weather records

Advertising

Kassel weather history for previous 24 hours

 ConditionsComfort  
Time TempWeatherWind HumidityBarometerVisibility
6:20 AM
Tue, Aug 4
64 °FClear.2 mph73%29.92 "Hg10 mi
5:50 AM63 °FClear.3 mph73%29.92 "Hg10 mi
9:50 PM
Mon, Aug 3
73 °FSunny.2 mph53%29.98 "Hg10 mi
9:20 PM75 °FSunny.2 mph54%29.98 "Hg10 mi
8:50 PM81 °FSunny.2 mph39%29.98 "Hg10 mi
8:20 PM82 °FSunny.5 mph40%29.98 "Hg10 mi
7:50 PM84 °FSunny.7 mph35%29.98 "Hg10 mi
7:20 PM86 °FPassing clouds.9 mph33%29.98 "HgN/A
6:50 PM88 °FPassing clouds.7 mph31%29.98 "HgN/A
6:20 PM86 °FPassing clouds.10 mph31%29.98 "HgN/A
5:50 PM86 °FPassing clouds.8 mph33%30.01 "HgN/A
5:20 PM86 °FPassing clouds.9 mph33%30.01 "HgN/A
4:50 PM88 °FPassing clouds.8 mph33%30.01 "HgN/A
4:20 PM88 °FPassing clouds.9 mph29%30.01 "HgN/A
3:50 PM88 °FSunny.14 mph31%30.01 "Hg10 mi
3:20 PM86 °FPassing clouds.12 mph33%30.04 "HgN/A
2:20 PM86 °FPassing clouds.8 mph35%30.04 "HgN/A
1:50 PM84 °FPassing clouds.10 mph35%30.04 "HgN/A
1:20 PM84 °FPassing clouds.10 mph37%30.04 "HgN/A
12:50 PM84 °FPassing clouds.10 mph37%30.07 "HgN/A
12:20 PM82 °FPassing clouds.12 mph40%30.07 "HgN/A
11:20 AM81 °FSunny.10 mph42%30.07 "Hg10 mi
10:50 AM79 °FSunny.9 mph45%30.07 "Hg10 mi
10:20 AM77 °FSunny.9 mph47%30.07 "Hg10 mi
9:50 AM73 °FPassing clouds.10 mph50%30.07 "HgN/A
9:20 AM72 °FSunny.9 mph50%30.07 "Hg10 mi
8:50 AM68 °FSunny.6 mph60%30.07 "Hg10 mi
8:20 AM64 °FSunny.2 mph68%30.07 "Hg10 mi
7:50 AM61 °FSunny.1 mph72%30.07 "Hg10 mi
7:20 AM59 °FSunny.2 mph77%30.07 "Hg10 mi
Weather by CustomWeather, © 2015

See weather overviewHow to use our weather pages